When you browse on this site, cookies collect data to enhance your experience and personalize the content and advertising you see.
Visit our Privacy Policy to learn more. By continuing to use the site, you agree to this use of cookies and data.

Previsão horária em Lisboa

Hoje, 24 Setembro, Quinta-feira

Tempo Temperatura Precipitação Vento Pressão Humidade
00:00 +19°C° 0 mm 0 m/s 757 mmHg 92%
01:00 +19°C° 0 mm 0 m/s 757 mmHg 92%
02:00 +19°C° 0 mm 0 m/s 757 mmHg 93%
03:00 +19°C° 0 mm 0 m/s 757 mmHg 93%
04:00 +20°C° 0 mm 1 m/s 757 mmHg 93%
05:00 +20°C° 0 mm 1 m/s 758 mmHg 94%
06:00 +21°C° 0.8 mm 1 m/s 758 mmHg 91%
07:00 +22°C° 0.8 mm 1 m/s 758 mmHg 88%
08:00 +22°C° 0.8 mm 1 m/s 758 mmHg 85%
09:00 +23°C° 0.2 mm 1 m/s 759 mmHg 79%
10:00 +24°C° 0.2 mm 2 m/s 759 mmHg 73%
11:00 +25°C° 0.2 mm 3 m/s 760 mmHg 66%
12:00 +25°C° 0 mm 4 m/s 760 mmHg 64%
13:00 +25°C° 0 mm 4 m/s 759 mmHg 62%
14:00 +25°C° 0 mm 5 m/s 759 mmHg 60%
15:00 +23°C° 0 mm 5 m/s 760 mmHg 62%
16:00 +22°C° 0 mm 5 m/s 760 mmHg 63%
17:00 +21°C° 0 mm 5 m/s 760 mmHg 65%
18:00 +20°C° 0 mm 5 m/s 761 mmHg 68%
19:00 +19°C° 0 mm 5 m/s 761 mmHg 72%
20:00 +18°C° 0 mm 4 m/s 762 mmHg 76%
21:00 +18°C° 0 mm 4 m/s 762 mmHg 76%
22:00 +17°C° 0 mm 4 m/s 762 mmHg 77%
23:00 +17°C° 0 mm 4 m/s 763 mmHg 78%

Amanhã, 25 Setembro, Sexta-feira

Tempo Temperatura Precipitação Vento Pressão Humidade
00:00 +17°C° 0 mm 4 m/s 763 mmHg 78%
01:00 +17°C° 0 mm 4 m/s 763 mmHg 79%
02:00 +17°C° 0 mm 4 m/s 763 mmHg 79%
03:00 +17°C° 0 mm 4 m/s 763 mmHg 80%
04:00 +15°C° 0 mm 4 m/s 763 mmHg 81%
05:00 +15°C° 0 mm 4 m/s 763 mmHg 82%
06:00 +16°C° 0 mm 5 m/s 764 mmHg 75%
07:00 +17°C° 0 mm 5 m/s 764 mmHg 67%
08:00 +19°C° 0 mm 6 m/s 765 mmHg 60%
09:00 +20°C° 0 mm 7 m/s 765 mmHg 55%
10:00 +21°C° 0 mm 7 m/s 765 mmHg 50%
11:00 +22°C° 0 mm 7 m/s 765 mmHg 45%
12:00 +22°C° 0 mm 8 m/s 765 mmHg 45%
13:00 +22°C° 0 mm 8 m/s 765 mmHg 44%
14:00 +22°C° 0 mm 8 m/s 764 mmHg 44%
15:00 +21°C° 0 mm 8 m/s 764 mmHg 47%
16:00 +20°C° 0 mm 8 m/s 764 mmHg 51%
17:00 +18°C° 0 mm 8 m/s 764 mmHg 54%
18:00 +17°C° 0 mm 8 m/s 765 mmHg 58%
19:00 +16°C° 0 mm 7 m/s 765 mmHg 62%
20:00 +15°C° 0 mm 7 m/s 765 mmHg 66%
21:00 +15°C° 0 mm 7 m/s 765 mmHg 67%
22:00 +15°C° 0 mm 7 m/s 765 mmHg 69%
23:00 +15°C° 0 mm 6 m/s 765 mmHg 71%

Depois de amanhã, 26 Setembro, Sábado

Tempo Temperatura Precipitação Vento Pressão Humidade
00:00 +15°C° 0 mm 6 m/s 765 mmHg 71%
01:00 +14°C° 0 mm 5 m/s 764 mmHg 71%
02:00 +14°C° 0 mm 5 m/s 764 mmHg 71%
03:00 +14°C° 0 mm 5 m/s 764 mmHg 69%
04:00 +14°C° 0 mm 5 m/s 764 mmHg 67%
05:00 +13°C° 0 mm 5 m/s 764 mmHg 66%
06:00 +14°C° 0 mm 5 m/s 764 mmHg 59%
07:00 +16°C° 0 mm 5 m/s 764 mmHg 53%
08:00 +17°C° 0 mm 5 m/s 764 mmHg 47%
09:00 +20°C° 0 mm 5 m/s 764 mmHg 41%
10:00 +21°C° 0 mm 6 m/s 764 mmHg 36%
11:00 +23°C° 0 mm 6 m/s 763 mmHg 31%
12:00 +23°C° 0 mm 6 m/s 763 mmHg 32%
13:00 +24°C° 0 mm 7 m/s 763 mmHg 33%
14:00 +24°C° 0 mm 7 m/s 762 mmHg 35%
15:00 +23°C° 0 mm 8 m/s 762 mmHg 42%
16:00 +21°C° 0 mm 8 m/s 762 mmHg 50%
17:00 +20°C° 0 mm 8 m/s 762 mmHg 58%
18:00 +18°C° 0 mm 8 m/s 762 mmHg 63%
19:00 +17°C° 0 mm 8 m/s 762 mmHg 68%
20:00 +16°C° 0 mm 8 m/s 763 mmHg 73%
21:00 +16°C° 0 mm 8 m/s 762 mmHg 74%
22:00 +16°C° 0 mm 7 m/s 762 mmHg 75%
23:00 +16°C° 0 mm 7 m/s 762 mmHg 76%

27 Setembro, Domingo

Tempo Temperatura Precipitação Vento Pressão Humidade
00:00 +16°C° 0 mm 7 m/s 761 mmHg 77%
01:00 +16°C° 0 mm 7 m/s 761 mmHg 79%
02:00 +16°C° 0 mm 7 m/s 760 mmHg 80%
03:00 +16°C° 0 mm 7 m/s 760 mmHg 81%
04:00 +16°C° 0 mm 7 m/s 760 mmHg 82%
05:00 +16°C° 0 mm 7 m/s 760 mmHg 83%
06:00 +17°C° 0 mm 7 m/s 760 mmHg 78%
07:00 +20°C° 0 mm 7 m/s 760 mmHg 74%
08:00 +21°C° 0 mm 8 m/s 760 mmHg 70%
09:00 +22°C° 0 mm 7 m/s 760 mmHg 65%
10:00 +24°C° 0 mm 7 m/s 760 mmHg 60%
11:00 +26°C° 0 mm 7 m/s 760 mmHg 55%
12:00 +26°C° 0 mm 8 m/s 759 mmHg 55%
13:00 +26°C° 0 mm 8 m/s 759 mmHg 55%
14:00 +26°C° 0 mm 9 m/s 758 mmHg 55%
15:00 +24°C° 0 mm 8 m/s 758 mmHg 60%
16:00 +23°C° 0 mm 8 m/s 758 mmHg 65%
17:00 +21°C° 0 mm 8 m/s 758 mmHg 71%
18:00 +21°C° 0 mm 7 m/s 759 mmHg 75%
19:00 +20°C° 0 mm 7 m/s 759 mmHg 79%
20:00 +18°C° 0 mm 7 m/s 759 mmHg 83%
21:00 +18°C° 0 mm 7 m/s 759 mmHg 84%
22:00 +19°C° 0 mm 6 m/s 759 mmHg 85%
23:00 +19°C° 0 mm 6 m/s 759 mmHg 86%

28 Setembro, Segunda-feira

Tempo Temperatura Precipitação Vento Pressão Humidade
00:00 +17°C° 0 mm 5 m/s 758 mmHg 87%
01:00 +17°C° 0 mm 5 m/s 758 mmHg 87%
02:00 +17°C° 0 mm 5 m/s 758 mmHg 88%
03:00 +18°C° 0 mm 4 m/s 758 mmHg 88%
04:00 +17°C° 0 mm 4 m/s 758 mmHg 89%
05:00 +17°C° 0 mm 3 m/s 758 mmHg 89%
06:00 +18°C° 0 mm 3 m/s 758 mmHg 83%
07:00 +19°C° 0 mm 3 m/s 758 mmHg 77%
08:00 +21°C° 0 mm 3 m/s 758 mmHg 71%
09:00 +22°C° 0 mm 3 m/s 758 mmHg 62%
10:00 +25°C° 0 mm 3 m/s 758 mmHg 54%
11:00 +26°C° 0 mm 3 m/s 758 mmHg 46%
12:00 +27°C° 0 mm 4 m/s 757 mmHg 44%
13:00 +27°C° 0 mm 4 m/s 757 mmHg 42%
14:00 +27°C° 0 mm 4 m/s 756 mmHg 39%
15:00 +26°C° 0 mm 4 m/s 756 mmHg 44%
16:00 +25°C° 0 mm 5 m/s 756 mmHg 48%
17:00 +23°C° 0 mm 5 m/s 756 mmHg 52%
18:00 +22°C° 0 mm 5 m/s 757 mmHg 55%
19:00 +21°C° 0 mm 5 m/s 757 mmHg 58%
20:00 +20°C° 0 mm 4 m/s 757 mmHg 61%
21:00 +20°C° 0 mm 4 m/s 757 mmHg 63%
22:00 +19°C° 0 mm 3 m/s 757 mmHg 66%
23:00 +19°C° 0 mm 3 m/s 757 mmHg 68%

29 Setembro, Terça-feira

Tempo Temperatura Precipitação Vento Pressão Humidade
00:00 +18°C° 0 mm 3 m/s 757 mmHg 71%
01:00 +18°C° 0 mm 3 m/s 757 mmHg 73%
02:00 +18°C° 0 mm 3 m/s 756 mmHg 76%
03:00 +18°C° 0 mm 3 m/s 757 mmHg 79%
04:00 +17°C° 0 mm 3 m/s 757 mmHg 82%
05:00 +17°C° 0 mm 3 m/s 757 mmHg 85%
06:00 +19°C° 0 mm 3 m/s 757 mmHg 78%
07:00 +20°C° 0 mm 3 m/s 757 mmHg 72%
08:00 +21°C° 0 mm 3 m/s 757 mmHg 66%
09:00 +24°C° 0 mm 3 m/s 757 mmHg 58%
10:00 +26°C° 0 mm 4 m/s 757 mmHg 50%
11:00 +28°C° 0 mm 4 m/s 757 mmHg 42%
12:00 +27°C° 0 mm 5 m/s 757 mmHg 42%
13:00 +27°C° 0 mm 5 m/s 757 mmHg 42%
14:00 +27°C° 0 mm 6 m/s 757 mmHg 43%
15:00 +26°C° 0 mm 6 m/s 757 mmHg 47%
16:00 +23°C° 0 mm 7 m/s 757 mmHg 52%
17:00 +21°C° 0 mm 7 m/s 757 mmHg 57%
18:00 +20°C° 0 mm 6 m/s 757 mmHg 64%
19:00 +19°C° 0 mm 6 m/s 758 mmHg 71%
20:00 +17°C° 0 mm 5 m/s 758 mmHg 78%
21:00 +17°C° 0 mm 5 m/s 758 mmHg 81%
22:00 +16°C° 0 mm 5 m/s 758 mmHg 84%
23:00 +16°C° 0 mm 5 m/s 758 mmHg 87%
Mostrar mais